FENGYUN 1C DEB, 29754

Orbit data source: Space-Track

FENGYUN 1C DEB, 29754 is space debris in SSO originally from a launch on Mon, 10 May 1999 UTC launched from the Taiyaun Space Center, China (TSC). Fengyun 1C debris stems from the Chinese weather satellite Fengyun-1C, which was intentionally destroyed by a Chinese anti-satellite missile in 2007. This event dramatically increased the amount of space debris, with thousands of trackable fragments posing hazards to satellites and human spaceflight. The Fengyun 1C debris cloud has become a focal point in discussions about space sustainability and the need for international regulations to prevent the creation of new debris.

Loading next visibility...
Identifier
29754, 1999-025AU
Orbit
SSO
Country
Flag of CNCN / PRC
Related business
Manufacturer
Unknown
Mission
Spacecraft
Bus & Motor
Unknown
Mass
Unknown
Launch date (UTC)
1999-05-10 (27 years ago)
Launch vehicle
Unknown
Launch site
Taiyaun Space Center, China (TSC)
Object type
Payload
Rocket body
Debris
Shape & HBR
Unknown shape, 0.1 m
Radar Cross Section
Medium (>0.1 m² and <1 m²)

Expand to show TLE details & history
Last TLE update: 1 day ago

TLE from 1 day ago
0 FENGYUN 1C DEB
1 29754U 99025AU  26253.14527872  .00001174  00000-0  56906-3 0  9998
2 29754  98.8941   1.8535 0036233 181.6834 298.7305 14.20031869 11918
Epoch: 2026-09-10T03:29Z
TLE epoch observation values (Epoch: 2026-09-10T03:29:12.081Z)
Latitude
58.87881°
Longitude
155.30714°
Altitude
822.694 km
Speed
7.454 km/s
True Right ascension
13h 07m 10s
True Declination
58° 43' 40"
Sunlit
Object was in daylight at epoch
Visualization orbit readout
Latitude
Unknown
Longitude
Unknown
Altitude
Unknown
Speed
Unknown
Apparent Right ascension
Unknown
Apparent Declination
Unknown
Sunlit
N/A
Visualization observer readout
Local Sidereal Time
00:39:22
Azimuth
Unknown
Elevation
Unknown
Doppler factor
Unknown
Orbital elements
Apogee altitude
848.502 km
Perigee altitude
796.323 km
Semi-major axis
7,200.549 km
Eccentricity
0.00362
Inclination
98.8941°
RAAN
1.8535°
Arg. of periapsis
181.6834°
True anomaly
298.36562°
Mean anomaly
298.7305°
Eccentric anomaly
298.54814°
Mean motion
3.55218 °/min
Orbital period
101.35 mins
BSTAR
0.00056906
Loading maneuver chart data...
Computing Atmospheric mass density...

Documentation

Showing up to 5 results
|